UAL1409 KIAH-KDEN

Flight info

Callsign UAL1409
Flight time N/A
Altitude 36000
Route STYCK8 DOLEY DCT MRMAC DCT ROLLS DCT HALEN NIIXX3
Aircraft B738/M-VGDW/C

Departure

Time 2026-05-08 01:50
Airport George Bush Intercontinental Airport (KIAH)

Arrival

Time N/A
Airport Denver International Airport (KDEN)
Time Latitude Longitude Altitude Speed Heading
2026-05-08 01:20 29.98941 -95.34103 106 ft 0 kts 240°
2026-05-08 01:40 29.98950 -95.34086 105 ft 4 kts 240°
2026-05-08 01:40 29.98962 -95.34060 104 ft 4 kts 243°
2026-05-08 01:40 29.98969 -95.34033 104 ft 4 kts 280°
2026-05-08 01:40 29.98958 -95.34013 103 ft 4 kts 347°
2026-05-08 01:41 29.98931 -95.34011 104 ft 4 kts
2026-05-08 01:41 29.98904 -95.34015 106 ft 4 kts
2026-05-08 01:41 29.98892 -95.34016 106 ft 0 kts
2026-05-08 01:44 29.98938 -95.34016 106 ft 9 kts
2026-05-08 01:45 29.99004 -95.34016 106 ft 9 kts 359°
2026-05-08 01:45 29.99070 -95.34019 106 ft 11 kts 344°
2026-05-08 01:45 29.99088 -95.34114 106 ft 14 kts 268°
2026-05-08 01:45 29.99087 -95.34223 106 ft 13 kts 269°
2026-05-08 01:46 29.99085 -95.34331 106 ft 15 kts 269°
2026-05-08 01:46 29.99085 -95.34459 106 ft 16 kts 270°
2026-05-08 01:46 29.99085 -95.34586 106 ft 16 kts 270°
2026-05-08 01:46 29.99086 -95.34708 106 ft 15 kts 270°
2026-05-08 01:47 29.99085 -95.34835 106 ft 17 kts 270°
2026-05-08 01:47 29.99089 -95.34977 104 ft 18 kts 272°
2026-05-08 01:47 29.99090 -95.35131 106 ft 20 kts 269°
2026-05-08 01:48 29.99080 -95.35455 106 ft 17 kts 242°
2026-05-08 01:48 29.99011 -95.35484 106 ft 7 kts 181°
2026-05-08 01:48 29.98986 -95.35485 106 ft 0 kts 180°
2026-05-08 01:48 29.98928 -95.35487 106 ft 16 kts 188°
2026-05-08 01:49 29.98860 -95.35595 106 ft 19 kts 248°
2026-05-08 01:49 29.98807 -95.35721 107 ft 16 kts 241°
2026-05-08 01:49 29.98753 -95.35760 108 ft 8 kts 169°
2026-05-08 01:49 29.98694 -95.35728 107 ft 15 kts 153°
2026-05-08 01:50 29.98373 -95.35531 105 ft 95 kts 152°
2026-05-08 01:50 29.97559 -95.35032 106 ft 168 kts 152°
2026-05-08 01:50 29.96347 -95.34301 328 ft 210 kts 154°
2026-05-08 01:50 29.95026 -95.33587 1353 ft 207 kts 154°
2026-05-08 01:51 29.93667 -95.33157 2433 ft 202 kts 173°
2026-05-08 01:51 29.92273 -95.33329 3277 ft 203 kts 194°
2026-05-08 01:51 29.91010 -95.34003 4203 ft 196 kts 212°
2026-05-08 01:51 29.90025 -95.35045 5171 ft 193 kts 232°
2026-05-08 01:52 29.89420 -95.36470 5829 ft 208 kts 256°
2026-05-08 01:52 29.89563 -95.38211 6023 ft 237 kts 296°
2026-05-08 01:52 29.90747 -95.39644 6222 ft 265 kts 332°
2026-05-08 01:52 29.92576 -95.40217 6642 ft 282 kts 356°
2026-05-08 01:53 29.94534 -95.40255 7350 ft 288 kts
2026-05-08 01:53 29.96581 -95.40205 8114 ft 292 kts
2026-05-08 01:53 29.98623 -95.40170 8968 ft 293 kts 359°
2026-05-08 01:53 30.00673 -95.40171 9795 ft 297 kts 358°
2026-05-08 01:54 30.02762 -95.40203 10399 ft 307 kts 356°
2026-05-08 01:54 30.04951 -95.40254 10582 ft 331 kts 356°
2026-05-08 01:54 30.07332 -95.40320 10798 ft 351 kts 354°
2026-05-08 01:54 30.09763 -95.40732 11326 ft 355 kts 343°
2026-05-08 01:55 30.12086 -95.41689 12019 ft 354 kts 332°
2026-05-08 01:55 30.14299 -95.42929 12799 ft 354 kts 329°
2026-05-08 01:55 30.16503 -95.44212 13553 ft 355 kts 329°
2026-05-08 01:55 30.18721 -95.45500 14228 ft 358 kts 328°
2026-05-08 01:56 30.20960 -95.46785 14844 ft 361 kts 328°
2026-05-08 01:56 30.23231 -95.48073 15451 ft 365 kts 328°
2026-05-08 01:56 30.25521 -95.49364 16062 ft 368 kts 327°
2026-05-08 01:56 30.27833 -95.50667 16670 ft 371 kts 327°
2026-05-08 01:57 30.30166 -95.51983 17266 ft 374 kts 327°
2026-05-08 01:57 30.32518 -95.53311 17843 ft 378 kts 326°
2026-05-08 01:57 30.34891 -95.54651 18402 ft 381 kts 326°
2026-05-08 01:57 30.37288 -95.56006 18892 ft 384 kts 326°
2026-05-08 01:58 30.39698 -95.57368 19400 ft 387 kts 326°
2026-05-08 01:58 30.42131 -95.58744 19908 ft 390 kts 326°
2026-05-08 01:58 30.44547 -95.60111 20393 ft 393 kts 326°
2026-05-08 01:58 30.47009 -95.61504 20902 ft 395 kts 326°
2026-05-08 01:59 30.49484 -95.62906 21403 ft 397 kts 326°
2026-05-08 01:59 30.51977 -95.64319 21909 ft 400 kts 326°
2026-05-08 01:59 30.54491 -95.65736 22406 ft 402 kts 326°
2026-05-08 01:59 30.57035 -95.67116 22892 ft 405 kts 327°
2026-05-08 02:00 30.59608 -95.68484 23356 ft 408 kts 327°
2026-05-08 02:00 30.62198 -95.69853 23781 ft 410 kts 327°
2026-05-08 02:00 30.64808 -95.71236 24148 ft 413 kts 327°
2026-05-08 02:00 30.67426 -95.72627 24511 ft 415 kts 327°
2026-05-08 02:01 30.70055 -95.74028 24870 ft 417 kts 327°
2026-05-08 02:01 30.72696 -95.75440 25225 ft 419 kts 327°
2026-05-08 02:01 30.75358 -95.76865 25575 ft 422 kts 327°
2026-05-08 02:01 30.78031 -95.78298 25925 ft 424 kts 327°
2026-05-08 02:02 30.80715 -95.79738 26261 ft 427 kts 327°
2026-05-08 02:02 30.83417 -95.81188 26593 ft 429 kts 327°
2026-05-08 02:02 30.86136 -95.82648 26920 ft 431 kts 327°
2026-05-08 02:02 30.88869 -95.84116 27239 ft 434 kts 326°
2026-05-08 02:03 30.91616 -95.85593 27554 ft 436 kts 326°
2026-05-08 02:03 30.94340 -95.87058 27875 ft 438 kts 326°
2026-05-08 02:03 30.97115 -95.88552 28166 ft 441 kts 326°
2026-05-08 02:03 30.99943 -95.90075 28447 ft 443 kts 326°
2026-05-08 02:04 31.02708 -95.91565 28742 ft 445 kts 326°
2026-05-08 02:04 31.05522 -95.93082 29026 ft 447 kts 326°
2026-05-08 02:04 31.08355 -95.94610 29303 ft 449 kts 326°
2026-05-08 02:04 31.11196 -95.96145 29578 ft 451 kts 326°
2026-05-08 02:05 31.14113 -95.97583 29832 ft 460 kts 330°
2026-05-08 02:05 31.17149 -95.98824 30109 ft 464 kts 332°
2026-05-08 02:05 31.19232 -95.99619 30298 ft 465 kts 333°
2026-05-08 02:05 31.22272 -96.00746 30645 ft 464 kts 333°
2026-05-08 02:06 31.25342 -96.01881 31034 ft 461 kts 333°
2026-05-08 02:06 31.28397 -96.03023 31388 ft 460 kts 332°
2026-05-08 02:06 31.31437 -96.04178 31744 ft 458 kts 332°
2026-05-08 02:06 31.34461 -96.05342 32083 ft 457 kts 332°
2026-05-08 02:07 31.37477 -96.06512 32398 ft 456 kts 332°
2026-05-08 02:07 31.40488 -96.07685 32716 ft 456 kts 332°
2026-05-08 02:07 31.43488 -96.08855 33059 ft 454 kts 332°
2026-05-08 02:07 31.46494 -96.10028 33396 ft 453 kts 331°
2026-05-08 02:08 31.49484 -96.11196 33738 ft 452 kts 331°
2026-05-08 02:08 31.52457 -96.12356 34080 ft 450 kts 331°
2026-05-08 02:08 31.55429 -96.13517 34366 ft 449 kts 331°
2026-05-08 02:08 31.58392 -96.14675 34625 ft 449 kts 330°
2026-05-08 02:09 31.61351 -96.15833 34895 ft 448 kts 330°
2026-05-08 02:09 31.64303 -96.16988 35168 ft 447 kts 330°
2026-05-08 02:09 31.67249 -96.18142 35440 ft 446 kts 330°